Weather History for Boothville, LA

Change the Weather History Date:

Saturday, September 14, 2013

  Actual Average Record
Temperature  
Mean Temperature 82 °F -  
Max Temperature 89 °F - - ()
Min Temperature 77 °F - - ()
Cooling Degree Days 18    
Growing Degree Days 32 (Base 50)    
Moisture  
Dew Point 73 °F    
Average Humidity 74    
Maximum Humidity 90    
Minimum Humidity 59    
Precipitation  
Precipitation 0.00 in - - ()
Sea Level Pressure  
Sea Level Pressure 29.92 in    
Wind  
Wind Speed 2 mph (East)    
Max Wind Speed 7 mph    
Max Gust Speed -    
Visibility 10 miles    
Events      
T = Trace of Precipitation, MM = Missing Value Source: NWS Daily Summary

Daily Weather History Graph

Daily Weather History Graph

Search for Another Location

Airport:

Trip Planner

Search our weather history database for the weather conditions in past years. The results will help you decide how hot, cold, wet, or windy it might be!

Date:

Astronomy

Sep. 14, 2013 Rise Set
Actual Time 6:42 AM CDT 7:03 PM CDT
Civil Twilight 6:18 AM CDT 7:27 PM CDT
Nautical Twilight 5:50 AM CDT 7:55 PM CDT
Astronomical Twilight 5:22 AM CDT 8:23 PM CDT
Moon 3:28 PM CDT (9/14) 1:32 AM CDT (9/14)
Length of Visible Light 13h 09m
Length of Day
12h 21m
Waxing Gibbous, 72% of the Moon is Illuminated
Sep 14
Waxing Gibbous
Sep 19
Full
Sep 26
Last Quarter
Oct 4
New
Oct 11
First Quarter

Hourly Weather History & Observations

Time (CDT) Temp. Heat Index Dew Point Humidity Pressure Visibility Wind Dir Wind Speed Gust Speed Precip Events Conditions
12:51 AM 79.0 °F - 72.0 °F 79% 29.87 in 10.0 mi SE 3.5 mph - N/A   Clear
1:51 AM 79.0 °F - 71.1 °F 77% 29.88 in 10.0 mi Calm Calm - N/A   Clear
2:51 AM 77.0 °F - 73.9 °F 90% 29.87 in 10.0 mi Calm Calm - N/A   Clear
3:51 AM 78.1 °F - 72.0 °F 81% 29.87 in 10.0 mi Calm Calm - N/A   Clear
4:51 AM 78.1 °F - 73.0 °F 84% 29.87 in 10.0 mi Calm Calm - N/A   Clear
5:51 AM 79.0 °F - 72.0 °F 79% 29.88 in 10.0 mi Calm Calm - N/A   Clear
6:51 AM 77.0 °F - 72.0 °F 84% 29.89 in 10.0 mi Calm Calm - N/A   Clear
7:51 AM 79.0 °F - 73.9 °F 84% 29.91 in 9.0 mi Calm Calm - N/A   Clear
8:51 AM 82.9 °F 88.8 °F 73.0 °F 72% 29.92 in 10.0 mi Calm Calm - N/A   Clear
9:49 AM 82.4 °F 88.2 °F 73.4 °F 74% 29.93 in 10.0 mi Calm Calm - N/A   Mostly Cloudy
9:51 AM 84.0 °F 91.2 °F 73.9 °F 72% 29.94 in 10.0 mi Calm Calm - N/A   Mostly Cloudy
9:59 AM 84.2 °F 90.9 °F 73.4 °F 70% 29.94 in 10.0 mi Calm Calm - N/A   Scattered Clouds
10:51 AM 84.0 °F 91.2 °F 73.9 °F 72% 29.95 in 10.0 mi East 4.6 mph - N/A   Clear
11:51 AM 86.0 °F 93.8 °F 73.9 °F 67% 29.94 in 10.0 mi Calm Calm - N/A   Clear
12:51 PM 88.0 °F 94.7 °F 72.0 °F 59% 29.94 in 10.0 mi Calm Calm - N/A   Clear
1:51 PM 88.0 °F 96.5 °F 73.9 °F 63% 29.93 in 10.0 mi NNE 4.6 mph - N/A   Clear
2:51 PM 87.1 °F 94.5 °F 73.0 °F 63% 29.91 in 10.0 mi East 6.9 mph - N/A   Clear
3:51 PM 84.9 °F 90.1 °F 71.1 °F 63% 29.91 in 10.0 mi East 6.9 mph - N/A   Clear
4:51 PM 84.0 °F 89.0 °F 71.1 °F 65% 29.91 in 10.0 mi ESE 5.8 mph - N/A   Clear
5:51 PM 82.9 °F 88.0 °F 72.0 °F 69% 29.91 in 10.0 mi ESE 4.6 mph - N/A   Clear
6:15 PM 82.4 °F 87.2 °F 71.6 °F 70% 29.91 in 10.0 mi ESE 4.6 mph - N/A   Partly Cloudy
6:51 PM 82.0 °F 86.7 °F 72.0 °F 71% 29.92 in 9.0 mi ESE 4.6 mph - N/A   Clear
7:51 PM 82.0 °F 87.4 °F 73.0 °F 74% 29.94 in 10.0 mi East 3.5 mph - N/A   Clear
8:51 PM 81.0 °F 85.8 °F 73.0 °F 77% 29.96 in 10.0 mi ESE 4.6 mph - N/A   Clear
9:51 PM 81.0 °F 85.8 °F 73.0 °F 77% 29.97 in 10.0 mi Calm Calm - N/A   Clear
10:51 PM 81.0 °F 86.2 °F 73.9 °F 79% 29.98 in 10.0 mi ESE 3.5 mph - N/A   Clear
11:51 PM 80.1 °F 84.5 °F 73.9 °F 81% 29.98 in 9.0 mi SE 3.5 mph - N/A   Clear